Location: Les Salelles
(44.4192°N, 4.1044°E)
Time: 16:27:20
(UTC+00:00)

Cosmos 2344 - Pass Details

Date: 20 January 2021
Orbit: 1243 x 2999 km, 63.3° (Epoch: 25 February)

Event Time Altitude Azimuth Distance (km) Brightness Sun altitude
Rises 18:42:26 0° 321° (NW) 4,503 6.9 -22.2°
Reaches altitude 10° 18:45:08 10° 326° (NW) 3,660 6.3 -22.7°
Maximum altitude 18:54:09 58° 45° (NE) 2,092 4.4 -24.3°
Enters shadow 18:59:36 34° 107° (ESE) 3,010 5.0 -25.2°
